Погода в Даду

Пакистан     26°43′49″N   67°46′13″E
темп.,
°C
ветер,
м/с
пор.,
м/с
влажн.,
%
обл.,
%
осадки,
мм/ч
давл.,
гПа
погр.,
м
23 октября, сб
сб2323:00+31зюз59200 0.0 1006209
02:00+28сз510220 0.0 1007211
05:00+25ссв23200 0.0 100730
08:00+26св23160 0.0 1009131
11:00+32ссз32110 0.0 10101134
14:00+34зсз33120 0.0 10071909
17:00+33сз33120 0.0 1006251
20:00+28с33130 0.0 100822
24 октября, вс
вс2423:00+26ссз45140 0.0 100851
02:00+25ссз49130 0.0 1008140
05:00+24с510340 0.0 1009200
08:00+25с68350 0.0 1012495
11:00+30ссв56320 0.0 10131505
14:00+33ссв44230 0.0 10102795
17:00+33св44210 0.0 10102203
20:00+28в48270 0.0 1012135
25 октября, пн
пн2523:00+26св36320 0.0 1013119
02:00+24ссз45380 0.0 101396
05:00+23с47450 0.0 1014141
08:00+24с46440 0.0 1016251
11:00+29с33350 0.0 10161260
14:00+32с33240 0.0 10122469
17:00+32с33230 0.0 10122439
20:00+27св12320 0.0 101312
26 октября, вт
вт2623:00+26сз11340 0.0 101311
02:00+25св11360 0.0 101211
05:00+24в22370 0.0 101213
08:00+26юв11330 0.0 101475
11:00+31юз22240 0.0 10131220
14:00+34юз21190 0.0 10102319
17:00+34ююз23180 0.0 1009281
20:00+30ююв34235 0.0 101149
27 октября, ср
ср2723:00+28ююв33265 0.0 101245
02:00+27юв34285 0.0 101159
05:00+26ююв22302 0.0 101213
08:00+28св11270 0.0 101458
11:00+33сз22200 0.0 1014934
14:00+35з22160 0.0 10112894
17:00+34зюз22160 0.0 101094
20:00+30юз22200 0.0 101211